Flag for U.S.A. Weather past 2 weeks in Inglewood, California, U.S.A.

Now
64 °F

Clear.


Feels Like: 64 °F
Forecast: 53 / 71 °F
Wind: 6 mph from West

Location: Hawthorne Municipal Airport

Current Time: Jan 27, 2015 at 6:28:12 PM

Latest Report: Jan 27, 2015 at 5:53 PM


Visibility: 10 mi

Pressure: 30.15 "Hg

Humidity: 68%

Dew point: 53 °F

Location of InglewoodLocation

Historic Weather in Inglewood — Graph

°F

Inglewood temperature yesterday

Maximum temperature yesterday: 77 °F (at 10:53 AM)
Minimum temperature yesterday: 58 °F (at 9:53 PM)
Average temperature yesterday: 66 °F

Past Weeks' High & Low Weather Summary

 TemperatureHumidityPressure
High83 °F (Jan 25, 12:53 PM)100% (Jan 20, 4:53 AM)30.27 "Hg (Jan 20, 4:53 AM)
Low50 °F (Jan 14, 5:53 AM)8% (Jan 22, 12:53 PM)29.93 "Hg (Jan 20, 4:53 PM)
Average62 °F56%30.11 "Hg
* Reported Jan 12 4:53 PM — Jan 27 4:53 PM, Inglewood, Weather by CustomWeather, © 2014

Note: Actual official high and low records may vary slightly from our data, if they occured in-between our weather recording intervals... More about our weather records

Advertising

Inglewood weather history for previous 24 hours

 ConditionsComfort  
Time TempWeatherWind HumidityBarometerVisibility
4:53 PM
Jan 27
67 °FSunny.6 mph57%30.15 "Hg10 mi
3:53 PM68 °FSunny.7 mph55%30.16 "Hg10 mi
2:53 PM69 °FSunny.10 mph57%30.15 "Hg10 mi
1:53 PM70 °FSunny.9 mph57%30.15 "Hg10 mi
12:53 PM71 °FSunny.N/A53%30.15 "Hg10 mi
11:53 AM71 °FSunny.3 mph44%30.17 "Hg10 mi
10:53 AM68 °FSunny.No wind57%30.19 "Hg10 mi
9:53 AM66 °FSunny.No wind65%30.20 "Hg10 mi
8:53 AM65 °FSunny.No wind70%30.20 "Hg9 mi
7:55 AM61 °FPartly sunny.6 mph83%30.20 "Hg8 mi
7:53 AM61 °FPartly sunny.No wind81%30.19 "Hg8 mi
6:53 AM60 °FOvercast.No wind83%30.18 "Hg9 mi
5:53 AM59 °FOvercast.No wind87%30.15 "Hg8 mi
4:53 AM59 °FOvercast.No wind84%30.14 "Hg9 mi
3:53 AM57 °FPassing clouds.No wind90%30.13 "Hg10 mi
2:53 AM57 °FOvercast.No wind90%30.12 "Hg10 mi
1:53 AM56 °FPassing clouds.No wind90%30.11 "Hg10 mi
12:53 AM57 °FClear.No wind90%30.11 "Hg10 mi
11:53 PM
Jan 26
58 °FPassing clouds.No wind87%30.11 "Hg10 mi
10:53 PM58 °FOvercast.No wind87%30.11 "Hg10 mi
9:53 PM58 °FLight rain. Mostly cloudy.No wind90%30.09 "Hg7 mi
8:53 PM59 °FRain. Overcast.3 mph84%30.10 "Hg4 mi
7:53 PM60 °FLight rain. Overcast.6 mph78%30.09 "Hg10 mi
6:53 PM61 °FMostly cloudy.6 mph72%30.08 "Hg10 mi
Weather by CustomWeather, © 2014

See weather overviewHow to use our weather pages